Hourly Data Report for January 21, 2020

TORONTO CITY
ONTARIO
Current Station Operator: ECCC - MSC

43°40'00.000" N
79°24'00.000" W
112.50 m
6158355
71508
XTO

Download Data

Hourly Data (January 2020)
Hourly Data Report for January 21, 2020
TIME
LST
Temp Definition
°C
Dew Point Definition
°C
Rel Hum Definition
%
Precip. Amount Definition
mm

Wind Dir Definition
10's deg

Wind Spd Definition
km/h
Visibility Definition
km
Stn Press Definition
kPa
Hmdx Definition


Wind Chill Definition


Weather Definition


00:00 -7.6 -10.6 79 0.0       101.80     LegendNANA
01:00 -7.4 -9.7 83 0.0       101.77     LegendNANA
02:00 -6.3 -9.8 76 0.0       101.78     LegendNANA
03:00 -6.1 -9.5 77 0.0       101.79     LegendNANA
04:00 -5.7 -9.2 76 0.0       101.77     LegendNANA
05:00 -6.1 -9.6 77 0.0       101.78     LegendNANA
06:00 -6.5 -10.1 76 0.0       101.78     LegendNANA
07:00 -5.2 -8.9 75 0.0       101.81     LegendNANA
08:00 -4.2 -8.4 73 0.0       101.82     LegendNANA
09:00 -3.7 -7.9 73 0.0       101.81     LegendNANA
10:00 -3.1 -7.4 72 0.0       101.81     LegendNANA
11:00 -2.4 -7.5 68 0.0       101.81     LegendNANA
12:00 -2.0 -8.2 63 0.0       101.76     LegendNANA
13:00 -2.2 -8.4 63 0.0       101.73     LegendNANA
14:00 -1.9 -8.5 61 0.0       101.66     LegendNANA
15:00 -1.9 -8.7 60 0.0       101.68     LegendNANA
16:00 -2.6 -8.8 62 0.0       101.65     LegendNANA
17:00 -2.9 -8.9 64 0.0       101.65     LegendNANA
18:00 -3.5 -9.2 65 0.0       101.63     LegendNANA
19:00 -4.1 -9.5 66 0.0       101.62     LegendNANA
20:00 -4.7 -10.1 66 0.0       101.63     LegendNANA
21:00 -5.2 -10.5 66 0.0       101.62     LegendNANA
22:00 -4.9 -10.1 67 0.0       101.56     LegendNANA
23:00 -5.1 -10.0 69 0.0       101.47     LegendNANA

Notes on Data Quality.

Legend

  • E = Estimated
  • M = Missing
  • NA = Not Available*
  • [empty] = Indicates an unobserved value
Date modified: